Погода в Екатериновке

Россия / Саратовская область     52°03′01″N   44°20′42″E
темп.,
°C
ветер,
м/с
пор.,
м/с
влажн.,
%
обл.,
%
осадки,
мм/ч
давл.,
гПа
погр.,
м
24 мая, вт
вт2401:00+3з22780 0.0 100824
04:00+2зюз34830 0.0 100866
07:00+6зюз48745 0.0 1008213
10:00+12зюз685935 0.0 1007907
13:00+15з794795 0.1 10062522
16:00+14зюз785745 0.2 10071607
19:00+12з61063100 0.5 1007685
22:00+8зюз478038 0.5 1008110
25 мая, ср
ср2501:00+5ссв22885 0.0 101021
04:00+4ссз479294 0.0 1012198
07:00+5ссз467995 0.0 1013407
10:00+9сз455869 0.0 10131367
13:00+9сз5555100 0.0 10151554
16:00+10зсз455599 0.0 10151482
19:00+9зсз3561100 0.0 1016421
22:00+6зюз337564 0.0 101641
26 мая, чт
чт2601:00+4зюз338459 0.0 101747
04:00+5юз3677100 0.0 1017128
07:00+7зюз468179 0.0 1016271
10:00+10зюз346786 0.0 1015607
13:00+13юз686548 0.0 10141028
16:00+17зюз795825 0.8 10131606
19:00+15зюз4774100 1.1 1012403
22:00+12ююз4984100 1.9 1011154
27 мая, пт
пт2701:00+11ююз71389100 0.4 1009469
04:00+11ююз71595100 2.4 1007961
07:00+10ююз81397100 0.8 1005762
10:00+11зюз81494100 2.0 1005900
13:00+16з9126337 0.4 10061696
16:00+15зюз8138078 1.9 10061093
19:00+15з712741 0.7 10071228
22:00+10зюз411880 0.7 1010231
28 мая, сб
сб2801:00+9зюз49925 0.0 1011151
04:00+9ююз4893100 0.0 1011142
07:00+11ююз512854 0.0 1010340
10:00+18ююз9146964 0.0 10081071
13:00+17ююз9167194 0.0 10081055
16:00+20юз10167032 0.6 10081687
19:00+12зсз51191100 1.5 1011456
22:00+11юз3994100 1.8 1012284